User: anonymous   Login
Location: Newark
(13.8117°N, 3.6025°W)
Time: 18:48:21
(UTC+00:00)
Language:

S-56A Canister/Altair - Orbit

View from above orbital plane
View from above orbital plane
View from above satellite
View from above satellite

Ground track
Ground track

The orbit data is extracted from the following two-line orbital elements,

1    82U 61004B   19235.39997158 +.00000015 +00000-0 +63462-4 0  9993
2    82 038.8532 225.7065 1174200 080.2289 292.8724 12.26046629771100
Epoch (UTC): 23 August 2019 09:35:57
Eccentricity: 0.1174200
inclination: 38.8532°
perigee height: 633 km
apogee height: 2499 km
right ascension of ascending node: 225.7065°
argument of perigee: 80.2289°
revolutions per day: 12.26046629
mean anomaly at epoch: 292.8724°
orbit number at epoch: 77110

The dashed part of the orbit path shows where the satellite is in the earth's shadow,  

DLR